TimeEDT,TemperatureF,Dew PointF,Humidity,Sea Level PressureIn,VisibilityMPH,Wind Direction,Wind SpeedMPH,Gust SpeedMPH,PrecipitationIn,Events,Conditions,WindDirDegrees,DateUTC
12:54 AM,63.0,57.0,81,29.96,10.0,Calm,Calm,-,N/A,,Clear,0,2013-06-15 04:54:00
1:54 AM,62.1,57.0,84,29.96,10.0,Calm,Calm,-,N/A,,Clear,0,2013-06-15 05:54:00
2:54 AM,61.0,55.9,83,29.97,10.0,Calm,Calm,-,N/A,,Clear,0,2013-06-15 06:54:00
3:54 AM,60.1,55.9,86,29.97,10.0,Calm,Calm,-,N/A,,Clear,0,2013-06-15 07:54:00
4:54 AM,63.0,57.9,84,29.98,10.0,Calm,Calm,-,N/A,,Clear,0,2013-06-15 08:54:00
5:54 AM,60.1,55.9,86,30.00,10.0,Calm,Calm,-,N/A,,Clear,0,2013-06-15 09:54:00
6:54 AM,64.9,59.0,81,30.03,10.0,NW,3.5,-,N/A,,Clear,310,2013-06-15 10:54:00
7:54 AM,71.1,60.1,68,30.04,10.0,NNW,5.8,-,N/A,,Clear,330,2013-06-15 11:54:00
8:54 AM,75.9,57.0,52,30.06,10.0,NNW,4.6,-,N/A,,Clear,340,2013-06-15 12:54:00
9:54 AM,79.0,55.0,44,30.07,10.0,NNW,6.9,-,N/A,,Clear,340,2013-06-15 13:54:00
10:54 AM,80.1,54.0,40,30.06,10.0,Calm,Calm,-,N/A,,Clear,0,2013-06-15 14:54:00
11:54 AM,80.1,55.9,43,30.05,10.0,SW,4.6,-,N/A,,Scattered Clouds,230,2013-06-15 15:54:00
12:54 PM,82.0,55.9,41,30.04,10.0,West,12.7,-,N/A,,Scattered Clouds,280,2013-06-15 16:54:00
1:54 PM,82.0,57.0,42,30.04,10.0,West,6.9,-,N/A,,Mostly Cloudy,260,2013-06-15 17:54:00
2:54 PM,84.0,55.0,37,30.02,10.0,West,10.4,-,N/A,,Scattered Clouds,270,2013-06-15 18:54:00
3:54 PM,82.9,54.0,37,30.01,10.0,West,11.5,17.3,N/A,,Scattered Clouds,280,2013-06-15 19:54:00
4:54 PM,82.9,57.9,42,30.01,10.0,West,9.2,-,N/A,,Partly Cloudy,270,2013-06-15 20:54:00
5:54 PM,81.0,57.0,44,30.01,10.0,West,8.1,-,N/A,,Clear,260,2013-06-15 21:54:00
6:54 PM,79.0,59.0,50,30.01,10.0,SW,6.9,-,N/A,,Clear,220,2013-06-15 22:54:00
7:54 PM,77.0,60.1,56,30.02,10.0,SSW,5.8,-,N/A,,Clear,210,2013-06-15 23:54:00
8:54 PM,72.0,62.1,71,30.03,10.0,South,4.6,-,N/A,,Clear,190,2013-06-16 00:54:00
9:54 PM,71.1,62.1,73,30.04,10.0,SSW,3.5,-,N/A,,Scattered Clouds,200,2013-06-16 01:54:00
10:54 PM,70.0,62.1,76,30.05,10.0,South,4.6,-,N/A,,Scattered Clouds,190,2013-06-16 02:54:00
11:54 PM,69.1,63.0,81,30.05,10.0,South,4.6,-,N/A,,Scattered Clouds,180,2013-06-16 03:54:00